Location: Sungai Igah
(2.7333°N, 114.2500°E)
Time: 14:36:46
(UTC+00:00)

USA 281 - Pass Details

Date: 14 June 2021
Orbit: 1078 x 1081 km, 106.0° (Epoch: 18 July)

Event Time Altitude Azimuth Distance (km) Brightness Sun altitude
Exits shadow 19:33:36 24° 130° (SE) 2,052 4.7 -36.9°
Maximum altitude 19:37:15 47° 70° (ENE) 1,394 4.0 -36.1°
Drops below altitude 10° 19:43:27 10° 358° (N) 2,910 5.7 -34.8°
Sets 19:46:03 0° 352° (N) 3,864 6.4 -34.2°
